Hourly Weather Otorma

Today, 30 July, Friday

Time Temperature Precipitation Wind Pressure Humidity
00:00 +21°C° 0 mm 1 mps 743 mmHg 81%
01:00 +21°C° 0 mm 1 mps 743 mmHg 82%
02:00 +21°C° 0 mm 1 mps 743 mmHg 83%
03:00 +20°C° 0 mm 1 mps 743 mmHg 84%
04:00 +21°C° 0 mm 1 mps 743 mmHg 82%
05:00 +22°C° 0 mm 1 mps 743 mmHg 81%
06:00 +22°C° 0 mm 1 mps 743 mmHg 79%
07:00 +24°C° 0 mm 1 mps 743 mmHg 71%
08:00 +26°C° 0 mm 2 mps 743 mmHg 63%
09:00 +28°C° 0 mm 2 mps 743 mmHg 54%
10:00 +30°C° 0 mm 3 mps 743 mmHg 49%
11:00 +31°C° 0 mm 3 mps 743 mmHg 45%
12:00 +33°C° 0 mm 4 mps 742 mmHg 40%
13:00 +33°C° 0 mm 4 mps 742 mmHg 41%
14:00 +33°C° 0 mm 4 mps 741 mmHg 42%
15:00 +32°C° 0 mm 5 mps 741 mmHg 44%
16:00 +29°C° 0.7 mm 5 mps 741 mmHg 56%
17:00 +27°C° 0.7 mm 5 mps 741 mmHg 67%
18:00 +25°C° 0.7 mm 5 mps 741 mmHg 79%
19:00 +23°C° 1.4 mm 4 mps 741 mmHg 84%
20:00 +21°C° 1.4 mm 3 mps 741 mmHg 89%
21:00 +20°C° 1.4 mm 2 mps 741 mmHg 94%
22:00 +20°C° 0.1 mm 2 mps 741 mmHg 94%
23:00 +20°C° 0.1 mm 2 mps 741 mmHg 95%

Tomorrow, 31 July, Saturday

Time Temperature Precipitation Wind Pressure Humidity
00:00 +20°C° 0.1 mm 2 mps 741 mmHg 95%
01:00 +19°C° 0 mm 2 mps 741 mmHg 96%
02:00 +19°C° 0 mm 2 mps 741 mmHg 96%
03:00 +19°C° 0 mm 2 mps 741 mmHg 97%
04:00 +19°C° 0 mm 2 mps 742 mmHg 96%
05:00 +19°C° 0 mm 3 mps 742 mmHg 95%
06:00 +20°C° 0 mm 3 mps 742 mmHg 95%
07:00 +21°C° 0 mm 3 mps 742 mmHg 86%
08:00 +22°C° 0 mm 4 mps 743 mmHg 77%
09:00 +25°C° 0 mm 4 mps 743 mmHg 69%
10:00 +26°C° 0 mm 5 mps 743 mmHg 59%
11:00 +28°C° 0 mm 5 mps 744 mmHg 49%
12:00 +29°C° 0 mm 6 mps 744 mmHg 38%
13:00 +29°C° 0 mm 5 mps 744 mmHg 37%
14:00 +30°C° 0 mm 5 mps 744 mmHg 35%
15:00 +30°C° 0 mm 5 mps 744 mmHg 33%
16:00 +30°C° 0 mm 4 mps 744 mmHg 36%
17:00 +29°C° 0 mm 3 mps 744 mmHg 39%
18:00 +28°C° 0 mm 3 mps 744 mmHg 42%
19:00 +27°C° 0 mm 2 mps 744 mmHg 47%
20:00 +25°C° 0 mm 2 mps 745 mmHg 51%
21:00 +23°C° 0 mm 1 mps 745 mmHg 56%
22:00 +23°C° 0 mm 1 mps 745 mmHg 56%
23:00 +23°C° 0 mm 2 mps 745 mmHg 56%

Day after tomorrow, 1 August, Sunday

Time Temperature Precipitation Wind Pressure Humidity
00:00 +23°C° 0 mm 2 mps 746 mmHg 56%
01:00 +21°C° 0 mm 2 mps 746 mmHg 59%
02:00 +21°C° 0 mm 1 mps 746 mmHg 62%
03:00 +21°C° 0 mm 1 mps 746 mmHg 65%
04:00 +21°C° 0 mm 1 mps 747 mmHg 66%
05:00 +21°C° 0 mm 1 mps 747 mmHg 67%
06:00 +21°C° 0 mm 1 mps 747 mmHg 68%
07:00 +23°C° 0 mm 1 mps 747 mmHg 61%
08:00 +25°C° 0 mm 1 mps 748 mmHg 53%
09:00 +27°C° 0 mm 2 mps 748 mmHg 46%
10:00 +29°C° 0 mm 2 mps 748 mmHg 41%
11:00 +30°C° 0 mm 2 mps 748 mmHg 37%
12:00 +31°C° 0 mm 3 mps 748 mmHg 32%
13:00 +33°C° 0 mm 3 mps 748 mmHg 31%
14:00 +33°C° 0 mm 3 mps 747 mmHg 29%
15:00 +34°C° 0 mm 3 mps 747 mmHg 27%
16:00 +32°C° 0 mm 2 mps 747 mmHg 31%
17:00 +32°C° 0 mm 2 mps 747 mmHg 35%
18:00 +31°C° 0 mm 1 mps 747 mmHg 39%
19:00 +29°C° 0 mm 1 mps 747 mmHg 41%
20:00 +27°C° 0 mm 2 mps 747 mmHg 43%
21:00 +26°C° 0 mm 3 mps 747 mmHg 45%
22:00 +25°C° 0 mm 3 mps 747 mmHg 47%
23:00 +25°C° 0 mm 3 mps 747 mmHg 50%

2 August, Monday

Time Temperature Precipitation Wind Pressure Humidity
00:00 +24°C° 0 mm 3 mps 747 mmHg 52%
01:00 +24°C° 0 mm 3 mps 747 mmHg 53%
02:00 +22°C° 0 mm 3 mps 747 mmHg 53%
03:00 +22°C° 0 mm 3 mps 747 mmHg 54%
04:00 +22°C° 0 mm 3 mps 747 mmHg 55%
05:00 +22°C° 0 mm 3 mps 747 mmHg 57%
06:00 +22°C° 0 mm 3 mps 747 mmHg 58%
07:00 +26°C° 0 mm 3 mps 747 mmHg 53%
08:00 +28°C° 0 mm 4 mps 747 mmHg 47%
09:00 +32°C° 0 mm 4 mps 747 mmHg 42%
10:00 +33°C° 0 mm 4 mps 747 mmHg 38%
11:00 +34°C° 0 mm 4 mps 746 mmHg 35%
12:00 +36°C° 0 mm 4 mps 746 mmHg 31%
13:00 +36°C° 0 mm 5 mps 745 mmHg 29%
14:00 +37°C° 0 mm 5 mps 745 mmHg 27%
15:00 +38°C° 0 mm 6 mps 745 mmHg 25%
16:00 +36°C° 0 mm 5 mps 744 mmHg 29%
17:00 +35°C° 0 mm 3 mps 744 mmHg 33%
18:00 +34°C° 0 mm 2 mps 743 mmHg 37%
19:00 +31°C° 0 mm 2 mps 743 mmHg 40%
20:00 +29°C° 0 mm 2 mps 743 mmHg 43%
21:00 +27°C° 0 mm 1 mps 744 mmHg 46%
22:00 +27°C° 0.1 mm 2 mps 743 mmHg 48%
23:00 +26°C° 0.1 mm 2 mps 743 mmHg 49%

3 August, Tuesday

Time Temperature Precipitation Wind Pressure Humidity
00:00 +25°C° 0.1 mm 3 mps 743 mmHg 51%
01:00 +25°C° 0 mm 3 mps 743 mmHg 54%
02:00 +24°C° 0 mm 3 mps 743 mmHg 57%
03:00 +24°C° 0 mm 3 mps 743 mmHg 60%
04:00 +24°C° 0 mm 3 mps 743 mmHg 60%
05:00 +24°C° 0 mm 3 mps 743 mmHg 61%
06:00 +25°C° 0 mm 2 mps 743 mmHg 61%
07:00 +25°C° 0 mm 4 mps 744 mmHg 60%
08:00 +26°C° 0 mm 5 mps 744 mmHg 58%
09:00 +27°C° 0 mm 6 mps 744 mmHg 57%
10:00 +27°C° 0 mm 5 mps 744 mmHg 56%
11:00 +28°C° 0 mm 5 mps 744 mmHg 56%
12:00 +28°C° 0 mm 4 mps 744 mmHg 55%
13:00 +28°C° 0 mm 4 mps 744 mmHg 53%
14:00 +29°C° 0 mm 5 mps 744 mmHg 51%
15:00 +29°C° 0 mm 6 mps 744 mmHg 48%
16:00 +26°C° 0.8 mm 5 mps 744 mmHg 59%
17:00 +23°C° 0.8 mm 4 mps 743 mmHg 70%
18:00 +20°C° 0.8 mm 3 mps 743 mmHg 81%
19:00 +20°C° 0 mm 2 mps 744 mmHg 83%
20:00 +20°C° 0 mm 2 mps 744 mmHg 84%
21:00 +20°C° 0 mm 1 mps 744 mmHg 86%
22:00 +20°C° 0.3 mm 1 mps 744 mmHg 88%
23:00 +19°C° 0.3 mm 2 mps 744 mmHg 91%

4 August, Wednesday

Time Temperature Precipitation Wind Pressure Humidity
00:00 +18°C° 0.3 mm 3 mps 744 mmHg 94%
01:00 +18°C° 0.1 mm 3 mps 745 mmHg 95%
02:00 +18°C° 0.1 mm 3 mps 745 mmHg 96%
03:00 +17°C° 0.1 mm 3 mps 745 mmHg 97%
04:00 +17°C° 0 mm 3 mps 745 mmHg 96%
05:00 +17°C° 0 mm 4 mps 745 mmHg 95%
06:00 +17°C° 0 mm 4 mps 746 mmHg 94%
07:00 +18°C° 0 mm 4 mps 746 mmHg 87%
08:00 +20°C° 0 mm 4 mps 746 mmHg 79%
09:00 +21°C° 0 mm 4 mps 747 mmHg 72%
10:00 +22°C° 0 mm 5 mps 747 mmHg 64%
11:00 +25°C° 0 mm 5 mps 747 mmHg 56%
12:00 +26°C° 0 mm 5 mps 747 mmHg 48%
13:00 +26°C° 0 mm 5 mps 747 mmHg 47%
14:00 +26°C° 0 mm 5 mps 748 mmHg 46%
15:00 +26°C° 0 mm 5 mps 748 mmHg 45%
16:00 +26°C° 0 mm 4 mps 748 mmHg 45%
17:00 +26°C° 0 mm 4 mps 748 mmHg 46%
18:00 +26°C° 0 mm 3 mps 748 mmHg 46%
19:00 +24°C° 0 mm 3 mps 748 mmHg 51%
20:00 +23°C° 0 mm 2 mps 749 mmHg 56%
21:00 +20°C° 0 mm 2 mps 749 mmHg 60%
22:00 +20°C° 0 mm 2 mps 749 mmHg 61%
23:00 +20°C° 0 mm 2 mps 749 mmHg 61%
Show more